DateTimeUTC,F1_A11,F1_S11,BsB_S11,BsG_S11,BsR_S11,BbsB_S11,BbsG_S11,BbsR_S11,BaB_A11,BaG_A11,BaR_A11,T_S11,U_S11,P_S11,T1_A11
2020-09-15T00:00:00Z,00000380,21000600,,,,,,,,,,22.7,00.0,0663.5,30.8
2020-09-15T00:01:00Z,00000380,21000600,,,,,,,,,,22.7,00.0,0663.5,30.7
2020-09-15T00:02:00Z,00000380,21000600,,,,,,,,,,22.6,00.0,0663.5,30.7
2020-09-15T00:03:00Z,00000380,61000600,,,,,,,,,,22.6,00.0,0663.5,30.7
2020-09-15T00:04:00Z,00000380,41000600,0009.97,0008.24,0005.61,0001.26,0000.93,0000.96,0000.54,0000.43,0000.30,22.3,00.0,0664.4,30.7
2020-09-15T00:05:00Z,00000380,01000600,0010.24,0008.40,0005.81,0001.74,0000.85,0000.65,0000.18,0000.16,0000.35,22.3,00.0,0664.4,30.7
2020-09-15T00:06:00Z,00000380,01000600,0009.63,0008.07,0005.78,0001.37,0001.10,0000.24,0000.46,0000.43,0000.23,22.3,00.0,0664.4,30.7
2020-09-15T00:07:00Z,00000380,01000600,0011.45,0009.11,0006.70,0000.88,0000.87,0000.82,0000.45,0000.44,0000.19,22.3,00.0,0664.4,30.7
2020-09-15T00:08:00Z,00000380,01000600,0011.12,0008.60,0006.21,0001.16,0001.24,0000.74,0000.38,0000.36,0000.25,22.3,00.0,0664.4,30.7
2020-09-15T00:09:00Z,00000380,01000600,0009.24,0007.23,0005.58,0001.12,0000.43,0000.92,0000.37,0000.36,0000.39,22.3,00.0,0664.4,30.7
2020-09-15T00:10:00Z,00000380,01000600,0008.60,0007.92,0005.88,0000.99,0001.25,0001.12,0000.39,0000.31,0000.36,22.3,00.0,0664.4,30.7
2020-09-15T00:11:00Z,00000380,01000600,0010.42,0008.75,0005.80,0000.69,0001.03,0000.64,0000.32,0000.41,0000.27,22.3,00.0,0664.5,30.8
2020-09-15T00:12:00Z,00000380,01000600,0011.55,0009.12,0005.82,0000.94,0000.87,0000.56,0000.41,0000.40,0000.23,22.3,00.0,0664.5,30.8
2020-09-15T00:13:00Z,00000380,01000600,0009.84,0007.30,0005.30,0001.36,0001.09,0000.80,0000.23,0000.17,0000.28,22.3,00.0,0664.5,30.8
2020-09-15T00:14:00Z,00000380,01000600,0008.51,0008.19,0005.92,0001.00,0001.01,0000.61,0000.49,0000.37,0000.12,22.3,00.0,0664.5,30.8
2020-09-15T00:15:00Z,00000380,01000600,0011.56,0008.73,0005.83,0001.04,0001.01,0000.85,0000.29,0000.29,0000.51,22.3,00.0,0664.5,30.8
2020-09-15T00:16:00Z,00000380,01000600,0009.70,0008.75,0006.64,0001.02,0000.63,0001.01,0000.43,0000.28,0000.17,22.3,00.0,0664.5,30.8
2020-09-15T00:17:00Z,00000380,01000600,0009.16,0007.46,0005.32,0001.59,0000.90,0000.59,0000.31,0000.61,0000.20,22.3,00.0,0664.5,30.8
2020-09-15T00:18:00Z,00000380,01000600,0008.40,0007.88,0005.57,0000.92,0000.53,0000.86,0000.41,0000.12,0000.21,22.3,00.0,0664.5,30.8
2020-09-15T00:19:00Z,00000380,01000600,0008.51,0007.90,0005.51,0000.98,0000.84,0001.03,0000.27,0000.37,0000.38,22.3,00.0,0664.5,30.8
2020-09-15T00:20:00Z,00000380,01000600,0009.38,0007.21,0005.21,0000.42,0000.53,0000.67,0000.42,0000.40,0000.23,22.3,00.0,0664.5,30.7
2020-09-15T00:21:00Z,00000380,01000600,0008.86,0007.20,0005.51,0001.29,0001.16,0000.68,0000.32,0000.22,0000.23,22.3,00.0,0664.5,30.8
2020-09-15T00:22:00Z,00000380,01000600,0008.74,0007.18,0005.00,0000.83,0000.57,0000.69,0000.32,0000.43,0000.33,22.3,00.0,0664.5,30.8
2020-09-15T00:23:00Z,00000380,01000600,0009.27,0007.43,0005.31,0000.61,0000.64,0000.71,0000.47,0000.37,0000.20,22.3,00.0,0664.5,30.8
2020-09-15T00:24:00Z,00000380,01000600,0008.87,0006.98,0005.74,0000.94,0001.19,0000.68,0000.10,0000.23,0000.22,22.3,00.0,0664.5,30.8
2020-09-15T00:25:00Z,00000380,01000600,0008.13,0006.66,0005.30,0000.38,0000.82,0000.97,0000.39,0000.11,0000.13,22.3,00.0,0664.5,30.8
2020-09-15T00:26:00Z,00000380,01000600,0008.78,0006.85,0004.79,0000.87,0000.76,0000.94,0000.20,0000.52,0000.36,22.3,00.0,0664.5,30.8
2020-09-15T00:27:00Z,00000380,01000600,0008.64,0006.19,0005.57,0000.35,0000.45,0001.13,0000.36,0000.19,0000.14,22.3,00.0,0664.5,30.7
2020-09-15T00:28:00Z,00000380,01000600,0008.98,0005.89,0005.00,0001.13,0000.60,0000.71,0000.29,0000.31,0000.22,22.2,00.0,0664.5,30.7
2020-09-15T00:29:00Z,00000380,01000600,0007.68,0006.38,0004.67,0000.79,0000.61,0000.50,0000.39,0000.41,0000.13,22.2,00.0,0664.5,30.7
2020-09-15T00:30:00Z,00000380,01000600,0007.87,0006.10,0004.50,0001.04,0000.47,0000.54,0000.31,0000.40,0000.31,22.1,00.0,0664.5,30.7
2020-09-15T00:31:00Z,00000380,01000600,0008.80,0007.21,0005.67,0001.30,0000.82,0001.10,0000.34,0000.15,0000.24,22.1,00.0,0664.5,30.7
2020-09-15T00:32:00Z,00000380,01000600,0009.06,0006.98,0005.00,0001.24,0000.91,0000.86,0000.39,0000.11,0000.33,22.0,00.0,0664.5,30.7
2020-09-15T00:33:00Z,00000380,01000600,0006.74,0006.25,0004.89,0000.72,0000.99,0000.67,-000.00,0000.18,0000.06,22.0,00.0,0664.5,30.7
2020-09-15T00:34:00Z,00000380,01000600,0006.56,0006.07,0004.95,0000.77,0001.00,0001.05,0000.39,0000.30,0000.30,22.0,00.0,0664.5,30.7
2020-09-15T00:35:00Z,00000380,01000600,0007.79,0006.98,0005.34,0001.05,0000.82,0000.62,0000.23,0000.26,0000.20,22.0,00.0,0664.5,30.7
2020-09-15T00:36:00Z,00000380,01000600,0010.33,0007.96,0005.88,0001.02,0000.53,0000.85,0000.39,0000.26,0000.29,22.0,00.0,0664.5,30.7
2020-09-15T00:37:00Z,00000380,01000600,0009.82,0007.57,0005.49,0001.11,0000.92,0000.68,0000.32,0000.31,0000.28,22.0,00.0,0664.5,30.7
2020-09-15T00:38:00Z,00000380,01000600,0007.74,0006.60,0004.86,0001.55,0000.54,0000.38,0000.38,0000.34,0000.18,22.0,00.0,0664.4,30.7
2020-09-15T00:39:00Z,00000380,01000600,0008.02,0007.15,0004.87,0001.30,0000.97,0000.95,0000.16,0000.33,0000.27,22.0,00.0,0664.4,30.7
2020-09-15T00:40:00Z,00000380,01000600,0006.37,0004.93,0003.75,0001.09,0000.58,0000.72,0000.37,0000.30,0000.15,22.0,00.0,0664.4,30.7
2020-09-15T00:41:00Z,00000380,01000600,0005.15,0004.83,0003.22,0000.90,0000.28,0000.76,0000.30,0000.10,0000.24,22.0,00.0,0664.4,30.7
2020-09-15T00:42:00Z,00000380,01000600,0004.55,0004.30,0002.95,0000.47,0000.61,0000.85,0000.19,0000.25,0000.12,22.0,00.0,0664.4,30.7
2020-09-15T00:43:00Z,00000380,01000600,0006.91,0005.06,0003.73,-000.05,0000.61,0000.86,0000.18,0000.14,0000.16,22.0,00.0,0664.4,30.8
2020-09-15T00:44:00Z,00000380,01000600,0006.59,0004.98,0003.40,0001.15,0000.33,0000.80,0000.28,0000.32,0000.20,22.0,00.0,0664.4,30.8
2020-09-15T00:45:00Z,00000380,01000600,0008.58,0004.81,0003.92,0001.02,0000.52,0001.00,0000.18,0000.25,0000.05,22.1,00.0,0664.4,30.8
2020-09-15T00:46:00Z,00000380,01000600,0005.98,0004.99,0002.95,0000.55,0000.39,0000.37,0000.27,0000.14,0000.21,22.1,00.0,0664.4,30.8
2020-09-15T00:47:00Z,00000380,01000600,0005.51,0004.82,0003.42,0000.44,0000.83,0000.14,0000.16,0000.26,0000.27,22.1,00.0,0664.4,30.8
2020-09-15T00:48:00Z,00000380,01000600,0005.14,0004.34,0003.38,0000.68,0000.74,0000.33,0000.18,0000.19,0000.18,22.1,00.0,0664.4,30.8
2020-09-15T00:49:00Z,00000380,01000600,0005.99,0005.10,0003.23,0001.49,0000.36,0000.44,0000.13,-000.08,-000.09,22.1,00.0,0664.4,30.8
2020-09-15T00:50:00Z,00000380,01000600,0005.67,0005.12,0004.00,0001.58,0000.68,0000.64,0000.13,0000.09,0000.07,22.1,00.0,0664.4,30.8
2020-09-15T00:51:00Z,00000380,01000600,0006.36,0004.56,0004.06,0000.80,0000.28,0000.54,0000.17,0000.39,0000.32,22.1,00.0,0664.4,30.8
2020-09-15T00:52:00Z,00000380,01000600,0006.68,0004.45,0003.35,0000.76,0000.62,0000.60,0000.33,0000.18,0000.20,22.2,00.0,0664.4,30.8
2020-09-15T00:53:00Z,00000380,01000600,0005.54,0005.25,0002.65,0000.30,0000.23,0000.05,0000.08,0000.28,-000.13,22.2,00.0,0664.4,30.8
2020-09-15T00:54:00Z,00000380,01000600,0006.68,0004.47,0003.51,0000.26,0000.36,0000.62,0000.25,0000.09,0000.40,22.2,00.0,0664.4,30.8
2020-09-15T00:55:00Z,00000380,01000600,0004.91,0004.28,0003.27,0000.25,0000.44,0000.72,0000.34,0000.14,0000.21,22.2,00.0,0664.4,30.8
2020-09-15T00:56:00Z,00000380,01000600,0005.99,0005.38,0003.87,0000.63,0000.63,0000.97,0000.28,0000.40,0000.18,22.2,00.0,0664.4,30.8
2020-09-15T00:57:00Z,00000380,41000600,,,,,,,,,,22.2,00.0,0664.5,30.8
2020-09-15T00:58:00Z,00000380,61000600,,,,,,,,,,22.4,00.0,0663.5,30.8
2020-09-15T00:59:00Z,00000380,21000600,,,,,,,,,,22.5,00.0,0663.5,30.8
2020-09-15T01:00:00Z,00000380,21000600,,,,,,,,,,22.5,00.0,0663.5,30.8
2020-09-15T01:01:00Z,00000380,21000600,,,,,,,,,,22.5,00.0,0663.4,30.8
2020-09-15T01:02:00Z,00000380,21000600,,,,,,,,,,22.5,00.0,0663.4,30.8
2020-09-15T01:03:00Z,00000380,61000600,,,,,,,,,,22.5,00.0,0663.4,30.7
2020-09-15T01:04:00Z,00000380,41000600,0006.08,0006.49,0004.31,0001.14,0000.73,0000.60,0000.24,0000.47,0000.18,22.3,00.0,0664.3,30.7
2020-09-15T01:05:00Z,00000380,01000600,0006.57,0006.07,0003.83,-000.53,0000.75,0000.43,0000.34,0000.28,0000.32,22.2,00.0,0664.4,30.8
2020-09-15T01:06:00Z,00000380,01000600,0007.06,0005.27,0003.16,0000.44,0000.71,0000.23,0000.13,0000.19,0000.24,22.2,00.0,0664.4,30.7
2020-09-15T01:07:00Z,00000380,01000600,0005.95,0005.22,0003.62,0000.02,0000.42,0000.34,0000.38,0000.26,0000.10,22.2,00.0,0664.4,30.8
2020-09-15T01:08:00Z,00000380,01000600,0006.52,0005.48,0003.74,0000.61,0000.40,0000.66,0000.27,0000.30,0000.28,22.2,00.0,0664.4,30.8
2020-09-15T01:09:00Z,00000380,01000600,0006.02,0005.93,0003.87,0000.68,0000.38,0000.61,0000.31,0000.26,0000.13,22.2,00.0,0664.4,30.8
2020-09-15T01:10:00Z,00000380,01000600,0005.55,0005.58,0003.82,0000.56,0000.36,0000.23,0000.11,0000.12,0000.11,22.2,00.0,0664.4,30.8
2020-09-15T01:11:00Z,00000380,01000600,0005.93,0005.12,0003.25,0000.55,0000.66,0000.46,0000.27,0000.20,0000.27,22.2,00.0,0664.4,30.8
2020-09-15T01:12:00Z,00000380,01000600,0006.38,0005.74,0003.37,0000.99,0000.62,0000.21,0000.32,0000.31,0000.23,22.2,00.0,0664.4,30.8
2020-09-15T01:13:00Z,00000380,01000600,0005.06,0005.54,0003.02,0000.67,0000.49,0000.52,0000.19,0000.29,0000.04,22.2,00.0,0664.4,30.8
2020-09-15T01:14:00Z,00000380,01000600,0004.85,0005.02,0002.59,0000.60,0000.19,0000.15,0000.19,-000.01,0000.26,22.2,00.0,0664.4,30.8
2020-09-15T01:15:00Z,00000380,01000600,0004.74,0004.38,0002.66,0001.07,0000.60,0000.71,0000.14,0000.14,0000.14,22.3,00.0,0664.4,30.8
2020-09-15T01:16:00Z,00000380,01000600,0004.71,0004.58,0003.11,0000.78,0000.78,0000.53,0000.19,0000.35,0000.12,22.3,00.0,0664.4,30.8
2020-09-15T01:17:00Z,00000380,01000600,0005.50,0004.28,0002.53,-000.27,0000.62,0000.34,0000.41,0000.23,0000.11,22.2,00.0,0664.4,30.8
2020-09-15T01:18:00Z,00000380,01000600,0004.45,0004.07,0001.94,-000.04,0000.37,0000.67,-000.01,-000.04,0000.21,22.2,00.0,0664.4,30.7
2020-09-15T01:19:00Z,00000380,01000600,0004.19,0004.09,0002.18,0000.36,0000.22,0000.07,0000.23,0000.10,0000.04,22.2,00.0,0664.4,30.7
2020-09-15T01:20:00Z,00000380,01000600,0003.40,0004.08,0002.81,0000.34,0000.34,0000.79,0000.15,0000.22,0000.21,22.2,00.0,0664.4,30.7
2020-09-15T01:21:00Z,00000380,01000600,0005.78,0005.12,0002.78,0001.01,0000.63,0000.87,0000.36,0000.36,0000.16,22.2,00.0,0664.4,30.7
2020-09-15T01:22:00Z,00000380,01000600,0004.48,0005.19,0003.15,0000.70,0000.40,0000.49,0000.23,0000.22,0000.18,22.2,00.0,0664.4,30.8
2020-09-15T01:23:00Z,00000380,01000600,0005.02,0005.46,0003.21,0001.19,0000.67,0000.38,0000.39,0000.19,0000.27,22.2,00.0,0664.4,30.8
2020-09-15T01:24:00Z,00000380,01000600,0005.50,0004.27,0002.70,0000.42,0000.50,0000.52,0000.28,0000.13,0000.04,22.2,00.0,0664.4,30.8
2020-09-15T01:25:00Z,00000380,01000600,0005.00,0004.87,0002.91,0000.32,0000.58,0000.55,0000.03,0000.28,0000.36,22.2,00.0,0664.4,30.8
2020-09-15T01:26:00Z,00000380,01000600,0005.37,0005.15,0003.02,0001.09,0000.71,0000.20,0000.29,0000.24,0000.02,22.2,00.0,0664.4,30.8
2020-09-15T01:27:00Z,00000380,01000600,0005.93,0004.56,0002.77,0000.49,0000.55,0000.32,0000.10,0000.35,0000.18,22.2,00.0,0664.4,30.8
2020-09-15T01:28:00Z,00000380,01000600,0004.74,0003.29,0002.79,0000.24,0000.22,0000.63,0000.27,-000.14,0000.04,22.2,00.0,0664.4,30.8
2020-09-15T01:29:00Z,00000380,01000600,0005.79,0004.34,0002.91,0000.11,0000.73,0000.45,0000.31,0000.52,0000.18,22.2,00.0,0664.4,30.8
2020-09-15T01:30:00Z,00000380,01000600,0003.07,0004.39,0002.73,0000.66,0000.49,0000.75,0000.19,0000.13,0000.30,22.2,00.0,0664.3,30.7
2020-09-15T01:31:00Z,00000380,01000600,0004.39,0003.75,0002.43,0000.38,0000.55,0000.34,0000.24,0000.11,0000.13,22.1,00.0,0664.3,30.7
2020-09-15T01:32:00Z,00000380,01000600,0005.33,0004.19,0001.99,0001.09,0000.88,-000.24,0000.11,0000.16,0000.04,22.1,00.0,0664.3,30.7
2020-09-15T01:33:00Z,00000380,01000600,0004.87,0004.58,0002.24,0000.78,0000.50,0000.52,0000.11,0000.10,0000.19,22.1,00.0,0664.3,30.7
2020-09-15T01:34:00Z,00000380,01000600,0004.27,0003.61,0002.49,-000.04,0000.86,0000.60,0000.21,0000.16,0000.08,22.1,00.0,0664.3,30.7
2020-09-15T01:35:00Z,00000380,01000600,0004.87,0004.57,0002.04,0000.17,0000.68,0000.53,0000.03,0000.06,0000.19,22.1,00.0,0664.4,30.7
2020-09-15T01:36:00Z,00000380,01000600,0005.97,0004.02,0002.63,0000.65,0000.44,0000.07,0000.25,-000.04,0000.02,22.1,00.0,0664.4,30.7
2020-09-15T01:37:00Z,00000380,01000600,0004.46,0004.14,0002.16,0000.07,0000.65,0000.03,0000.19,0000.38,0000.07,22.0,00.0,0664.4,30.7
2020-09-15T01:38:00Z,00000380,01000600,0005.62,0003.32,0002.20,0001.05,0000.18,0000.18,0000.23,0000.15,0000.08,22.1,00.0,0664.3,30.7
2020-09-15T01:39:00Z,00000380,01000600,0004.62,0003.74,0002.61,-000.40,0000.20,0000.82,0000.11,0000.11,0000.19,22.1,00.0,0664.4,30.7
2020-09-15T01:40:00Z,00000380,01000600,0005.02,0003.73,0002.67,0000.64,-000.08,0000.75,0000.04,0000.13,0000.08,22.1,00.0,0664.3,30.7
2020-09-15T01:41:00Z,00000380,01000600,0005.05,0003.48,0002.51,0000.39,0000.33,0000.38,0000.11,0000.19,0000.07,22.1,00.0,0664.4,30.7
2020-09-15T01:42:00Z,00000380,01000600,0003.86,0004.25,0002.51,0000.45,0000.18,0000.25,0000.23,0000.00,0000.15,22.1,00.0,0664.4,30.7
2020-09-15T01:43:00Z,00000380,01000600,0003.86,0004.67,0002.22,0000.59,0000.53,0000.53,0000.28,0000.34,0000.25,22.1,00.0,0664.4,30.7
2020-09-15T01:44:00Z,00000380,01000600,0004.14,0004.01,0002.48,0001.53,0000.82,0000.21,0000.19,0000.29,0000.13,22.1,00.0,0664.4,30.8
2020-09-15T01:45:00Z,00000380,01000600,0004.51,0004.01,0002.35,-000.06,0000.76,-000.04,0000.20,0000.16,0000.17,22.1,00.0,0664.4,30.8
2020-09-15T01:46:00Z,00000380,01000600,0005.33,0004.66,0002.80,-000.05,0000.91,0000.43,0000.26,0000.22,0000.20,22.1,00.0,0664.3,30.8
2020-09-15T01:47:00Z,00000380,01000600,0003.96,0004.30,0002.30,0000.22,0000.31,0000.39,0000.23,0000.28,0000.23,22.1,00.0,0664.3,30.8
2020-09-15T01:48:00Z,00000380,01000600,0003.74,0004.54,0002.30,0000.48,0000.10,0000.23,0000.26,-000.03,-000.03,22.2,00.0,0664.3,30.8
2020-09-15T01:49:00Z,00000380,01000600,0004.10,0004.25,0002.64,0000.16,0000.18,0000.27,0000.06,0000.02,0000.15,22.1,00.0,0664.4,30.8
2020-09-15T01:50:00Z,00000380,01000600,0004.07,0004.51,0002.85,0000.95,0000.27,0000.43,0000.26,0000.32,0000.08,22.1,00.0,0664.4,30.7
2020-09-15T01:51:00Z,00000380,01000600,0004.63,0003.86,0002.96,0000.57,0000.68,-000.03,0000.01,0000.12,0000.13,22.1,00.0,0664.4,30.7
2020-09-15T01:52:00Z,00000380,01000600,0004.18,0004.13,0002.81,-000.35,0000.26,0000.21,0000.36,0000.28,0000.15,22.1,00.0,0664.4,30.7
2020-09-15T01:53:00Z,00000380,01000600,0004.74,0003.61,0002.92,0000.31,0000.64,0000.29,0000.12,-000.00,0000.27,22.1,00.0,0664.3,30.8
2020-09-15T01:54:00Z,00000380,01000600,0004.87,0004.31,0003.10,0001.44,0000.13,0000.50,0000.23,0000.31,-000.02,22.1,00.0,0664.3,30.8
2020-09-15T01:55:00Z,00000380,01000600,0005.34,0004.27,0002.71,-000.43,0000.35,0000.15,0000.32,0000.17,0000.31,22.1,00.0,0664.3,30.8
2020-09-15T01:56:00Z,00000380,01000600,0003.02,0004.30,0002.20,0000.45,0000.44,0000.18,0000.11,0000.18,0000.18,22.1,00.0,0664.3,30.8
2020-09-15T01:57:00Z,00000380,41000600,,,,,,,,,,22.2,00.0,0664.2,30.8
2020-09-15T01:58:00Z,00000380,61000600,,,,,,,,,,22.3,00.0,0663.4,30.8
2020-09-15T01:59:00Z,00000380,21000600,,,,,,,,,,22.4,00.0,0663.3,30.8
2020-09-15T02:00:00Z,00000380,21000600,,,,,,,,,,22.5,00.0,0663.3,30.8
2020-09-15T02:01:00Z,00000380,21000600,,,,,,,,,,22.5,00.0,0663.3,30.8
2020-09-15T02:02:00Z,00000380,21000600,,,,,,,,,,22.5,00.0,0663.3,30.7
2020-09-15T02:03:00Z,00000380,61000600,,,,,,,,,,22.5,00.0,0663.3,30.7
2020-09-15T02:04:00Z,00000380,41000600,0005.64,0004.10,0002.72,0000.59,0001.07,0000.33,0000.08,0000.06,0000.05,22.2,00.0,0664.2,30.7
2020-09-15T02:05:00Z,00000380,01000600,0006.95,0004.12,0003.12,0001.08,0000.24,0000.63,0000.22,-000.07,0000.04,22.1,00.0,0664.3,30.7
2020-09-15T02:06:00Z,00000380,01000600,0004.86,0003.84,0003.04,0000.36,0000.33,0000.49,0000.10,0000.25,0000.13,22.1,00.0,0664.3,30.7
2020-09-15T02:07:00Z,00000380,01000600,0005.56,0004.01,0002.44,0001.04,0000.41,0000.27,0000.30,0000.17,0000.28,22.1,00.0,0664.3,30.7
2020-09-15T02:08:00Z,00000380,01000600,0004.90,0003.97,0002.83,0000.80,0000.51,0000.27,0000.14,0000.24,0000.03,22.1,00.0,0664.3,30.7
2020-09-15T02:09:00Z,00000380,01000600,0005.61,0004.08,0003.19,-000.02,0000.37,0000.29,0000.23,0000.29,0000.33,22.1,00.0,0664.3,30.7
2020-09-15T02:10:00Z,00000380,01000600,0005.40,0003.90,0002.84,0001.13,0000.44,0000.24,0000.18,-000.01,0000.07,22.1,00.0,0664.3,30.7
2020-09-15T02:11:00Z,00000380,01000600,0006.12,0003.28,0002.82,0001.08,-000.27,0000.77,0000.26,0000.32,0000.22,22.1,00.0,0664.3,30.7
2020-09-15T02:12:00Z,00000380,01000600,0006.13,0003.77,0003.06,0000.28,0000.37,0000.53,-000.01,0000.10,0000.15,22.1,00.0,0664.3,30.7
2020-09-15T02:13:00Z,00000380,01000600,0005.86,0004.45,0003.04,0000.48,0000.21,0000.49,0000.30,0000.27,0000.05,22.1,00.0,0664.3,30.7
2020-09-15T02:14:00Z,00000380,01000600,0005.99,0003.79,0002.76,0000.40,0000.41,0000.52,0000.21,0000.26,0000.28,22.1,00.0,0664.3,30.8
2020-09-15T02:15:00Z,00000380,01000600,0006.14,0003.80,0002.79,-000.19,0000.53,0000.23,0000.21,-000.03,0000.09,22.1,00.0,0664.2,30.8
2020-09-15T02:16:00Z,00000380,01000600,0005.52,0004.04,0002.98,-000.17,0000.53,0000.01,0000.18,0000.24,0000.11,22.1,00.0,0664.2,30.8
2020-09-15T02:17:00Z,00000380,01000600,0005.66,0003.61,0002.32,-000.16,0000.28,0000.44,0000.33,0000.44,0000.21,22.1,00.0,0664.2,30.8
2020-09-15T02:18:00Z,00000380,01000600,0004.98,0004.02,0002.23,0000.12,0000.43,0000.09,0000.13,0000.15,0000.02,22.1,00.0,0664.2,30.8
2020-09-15T02:19:00Z,00000380,01000600,0006.19,0003.75,0002.95,0000.39,0000.65,0000.09,0000.20,0000.09,0000.44,22.1,00.0,0664.2,30.8
2020-09-15T02:20:00Z,00000380,01000600,0004.59,0003.48,0002.64,0000.38,0000.52,0000.06,0000.29,0000.15,-000.03,22.1,00.0,0664.2,30.8
2020-09-15T02:21:00Z,00000380,01000600,0004.37,0003.85,0002.65,0000.83,0000.50,0000.45,0000.04,0000.21,0000.09,22.1,00.0,0664.2,30.8
2020-09-15T02:22:00Z,00000380,01000600,0004.86,0002.86,0002.21,0000.55,0000.39,0000.36,0000.11,0000.05,0000.27,22.1,00.0,0664.2,30.7
2020-09-15T02:23:00Z,00000380,01000600,0005.23,0003.14,0002.52,0000.51,0000.75,0000.18,0000.34,0000.28,0000.12,22.1,00.0,0664.2,30.7
2020-09-15T02:24:00Z,00000380,01000600,0004.69,0003.69,0002.88,0000.09,0000.37,0000.40,0000.11,0000.31,0000.05,22.1,00.0,0664.2,30.8
2020-09-15T02:25:00Z,00000380,01000600,0005.43,0003.08,0002.49,-000.65,0000.14,0000.06,0000.18,-000.01,0000.17,22.1,00.0,0664.2,30.8
2020-09-15T02:26:00Z,00000380,01000600,0005.43,0003.39,0002.50,-000.19,-000.04,0000.01,0000.08,0000.16,0000.03,22.1,00.0,0664.2,30.8
2020-09-15T02:27:00Z,00000380,01000600,0005.27,0003.58,0002.36,0000.12,0000.54,0000.44,0000.05,0000.02,0000.13,22.1,00.0,0664.2,30.8
2020-09-15T02:28:00Z,00000380,01000600,0005.91,0003.16,0002.12,0000.55,0000.48,0000.48,0000.12,0000.06,0000.09,22.1,00.0,0664.2,30.8
2020-09-15T02:29:00Z,00000380,01000600,0004.61,0003.69,0002.22,0000.58,0000.71,0000.49,0000.33,0000.33,0000.14,22.1,00.0,0664.2,30.8
2020-09-15T02:30:00Z,00000380,01000600,0004.04,0003.26,0002.44,0000.61,0000.50,0000.51,0000.06,0000.24,0000.28,22.1,00.0,0664.2,30.8
2020-09-15T02:31:00Z,00000380,01000600,0005.36,0003.32,0002.49,-000.20,0000.64,0000.34,0000.44,0000.31,0000.19,22.1,00.0,0664.2,30.7
2020-09-15T02:32:00Z,00000380,01000600,0006.13,0003.33,0002.78,0000.76,0000.60,0000.87,0000.16,0000.42,0000.04,22.1,00.0,0664.2,30.7
2020-09-15T02:33:00Z,00000380,01000600,0004.26,0003.09,0002.91,0000.52,0000.37,0000.54,0000.26,0000.09,0000.25,22.0,00.0,0664.2,30.7
2020-09-15T02:34:00Z,00000380,01000600,0005.49,0003.13,0002.75,0000.36,0000.78,0000.49,0000.11,0000.08,0000.06,22.0,00.0,0664.2,30.7
2020-09-15T02:35:00Z,00000380,01000600,0004.37,0002.95,0001.83,0000.48,0000.58,0000.14,0000.14,-000.04,-000.00,22.0,00.0,0664.2,30.7
2020-09-15T02:36:00Z,00000380,01000600,0003.18,0003.16,0002.18,0001.08,0000.32,0000.55,0000.11,0000.09,0000.15,22.0,00.0,0664.2,30.7
2020-09-15T02:37:00Z,00000380,01000600,0004.13,0002.88,0002.19,0000.90,0000.57,0000.18,0000.18,0000.14,0000.21,21.9,00.0,0664.2,30.7
2020-09-15T02:38:00Z,00000380,01000600,0004.77,0003.28,0001.92,0000.40,0000.48,0000.48,-000.07,0000.05,-000.10,21.9,00.0,0664.2,30.7
2020-09-15T02:39:00Z,00000380,01000600,0003.24,0002.25,0001.71,0000.24,0000.19,-000.02,0000.32,0000.13,0000.10,21.9,00.0,0664.2,30.7
2020-09-15T02:40:00Z,00000380,01000600,0004.64,0002.60,0001.42,0000.68,0000.36,0000.67,0000.00,0000.19,0000.30,21.9,00.0,0664.2,30.7
2020-09-15T02:41:00Z,00000380,01000600,0003.88,0002.84,0002.03,0000.92,0000.29,0000.29,0000.04,0000.01,-000.00,22.0,00.0,0664.2,30.7
2020-09-15T02:42:00Z,00000380,01000600,0004.84,0003.03,0001.60,0000.41,0000.34,0000.23,0000.15,0000.05,0000.14,22.0,00.0,0664.2,30.7
2020-09-15T02:43:00Z,00000380,01000600,0004.08,0003.39,0001.74,0000.03,0000.26,0000.14,0000.14,0000.23,0000.07,22.0,00.0,0664.2,30.7
2020-09-15T02:44:00Z,00000380,01000600,0003.77,0002.95,0001.66,0000.96,0000.20,0000.43,0000.18,0000.35,-000.04,22.0,00.0,0664.2,30.7
2020-09-15T02:45:00Z,00000380,01000600,0004.53,0002.95,0002.08,0000.03,0000.60,0000.17,-000.13,-000.21,0000.16,22.0,00.0,0664.2,30.7
2020-09-15T02:46:00Z,00000380,01000600,0004.84,0002.98,0001.82,0000.48,0000.23,0000.26,0000.17,0000.15,0000.09,22.0,00.0,0664.2,30.7
2020-09-15T02:47:00Z,00000380,01000600,0004.85,0002.40,0001.86,-000.17,0000.28,0000.00,0000.12,0000.03,0000.17,22.0,00.0,0664.2,30.7
2020-09-15T02:48:00Z,00000380,01000600,0004.27,0003.00,0001.45,0000.59,0000.26,0000.09,0000.19,0000.18,-000.13,22.0,00.0,0664.2,30.7
2020-09-15T02:49:00Z,00000380,01000600,0004.75,0002.29,0002.13,-000.13,-000.03,0000.68,-000.01,0000.16,0000.13,22.0,00.0,0664.2,30.7
2020-09-15T02:50:00Z,00000380,01000600,0004.27,0002.44,0002.42,-000.18,0000.10,0000.33,0000.10,0000.10,0000.09,22.0,00.0,0664.2,30.8
2020-09-15T02:51:00Z,00000380,01000600,0004.55,0002.91,0001.79,0000.14,0000.56,0000.22,0000.01,-000.08,0000.15,22.0,00.0,0664.2,30.8
2020-09-15T02:52:00Z,00000380,01000600,0003.68,0002.77,0001.86,0000.31,0000.21,0000.15,0000.21,0000.30,0000.04,22.0,00.0,0664.2,30.8
2020-09-15T02:53:00Z,00000380,01000600,0004.09,0002.63,0002.49,-000.02,0000.51,0000.19,0000.03,-000.28,0000.07,22.0,00.0,0664.2,30.8
2020-09-15T02:54:00Z,00000380,01000600,0004.48,0003.11,0002.01,0000.36,0000.19,0000.58,-000.05,0000.19,-000.04,22.0,00.0,0664.2,30.7
2020-09-15T02:55:00Z,00000380,01000600,0003.73,0002.49,0001.86,-000.08,0000.20,0000.37,0000.07,0000.28,0000.12,22.0,00.0,0664.2,30.7
2020-09-15T02:56:00Z,00000380,01000600,0004.78,0002.55,0002.05,0001.03,0000.26,0000.49,0000.07,-000.11,0000.04,22.1,00.0,0664.2,30.8
2020-09-15T02:57:00Z,00000380,41000600,,,,,,,,,,22.1,00.0,0664.2,30.8
2020-09-15T02:58:00Z,00000380,61000600,,,,,,,,,,22.3,00.0,0663.3,30.8
2020-09-15T02:59:00Z,00000380,21000600,,,,,,,,,,22.4,00.0,0663.3,30.8
2020-09-15T03:00:00Z,00000380,21000600,,,,,,,,,,22.4,00.0,0663.3,30.8
2020-09-15T03:01:00Z,00000380,21000600,,,,,,,,,,22.4,00.0,0663.3,30.8
2020-09-15T03:02:00Z,00000380,21000600,,,,,,,,,,22.4,00.0,0663.3,30.8
2020-09-15T03:03:00Z,00000380,61000600,,,,,,,,,,22.4,00.0,0663.3,30.7
2020-09-15T03:04:00Z,00000380,41000600,0003.33,0002.59,0002.01,0000.21,0000.15,0000.08,0000.04,-000.00,0000.05,22.1,00.0,0664.1,30.7
2020-09-15T03:05:00Z,00000380,01000600,0003.77,0003.23,0001.56,0000.29,0000.11,0000.33,0000.15,-000.04,0000.02,22.0,00.0,0664.2,30.7
2020-09-15T03:06:00Z,00000380,01000600,0003.38,0002.89,0001.67,0000.72,0000.13,0000.49,0000.08,0000.05,-000.06,22.0,00.0,0664.2,30.7
2020-09-15T03:07:00Z,00000380,01000600,0003.78,0002.82,0001.82,0000.26,0000.15,0000.23,0000.14,0000.04,0000.21,22.0,00.0,0664.2,30.7
2020-09-15T03:08:00Z,00000380,01000600,0004.94,0003.16,0001.98,-000.36,0000.62,0000.29,0000.10,0000.19,0000.05,22.0,00.0,0664.2,30.7
2020-09-15T03:09:00Z,00000380,01000600,0002.58,0002.92,0001.39,0000.42,0000.47,0000.40,0000.16,0000.24,0000.16,22.0,00.0,0664.2,30.7
2020-09-15T03:10:00Z,00000380,01000600,0003.62,0002.06,0001.71,0000.47,0000.46,0000.63,0000.23,0000.27,0000.21,22.0,00.0,0664.2,30.7